FW4564 Weather Reports


time (UTC)temp
C
wind
direction
speed
KPH
gust
KPH
rain 1hr
cm
rain 24hr
cm
rain mn
cm
humidity
%
barometer
mb
20260503194901 20 280 12.9 25.7 0.00 0.00 0.00 43 1003.4
20260503193402 20 260 12.9 22.5 0.00 0.00 0.00 41 1003.4
20260503190403 20 259 12.9 17.7 0.00 0.00 0.00 43 1003.7
20260503184906 19 248 19.3 24.1 0.00 0.00 0.00 45 1003.7
20260503183403 19 258 11.3 19.3 0.00 0.00 0.00 43 1004.1
20260503181902 18 273 14.5 22.5 0.00 0.00 0.00 43 1004.1
20260503180402 18 300 17.7 17.7 0.00 0.00 0.00 43 1004.1
20260503173401 18 260 12.9 25.7 0.00 0.00 0.00 43 1004.4
20260503171901 17 256 14.5 20.9 0.00 0.00 0.00 46 1004.4
20260503170403 17 235 19.3 25.7 0.00 0.00 0.00 44 1004.7
20260503150403 15 236 29.0 37.0 0.00 0.00 0.00 51 1006.1
20260503130403 11 267 4.8 14.5 0.00 0.00 0.00 57 1006.8
20260503110402 8 251 6.4 8.0 0.00 0.00 0.00 61 1007.1
20260503080902 9 211 6.4 6.4 0.00 0.00 0.00 61 1009.1
20260503072903 10 281 8.0 11.3 0.00 0.00 0.00 58 1009.1
20260503071404 9 237 8.0 8.0 0.00 0.00 0.00 60 1009.1
20260503054405 7 33 1.6 3.2 0.00 0.00 0.00 65 1010.2
20260503053402 7 107 0.0 4.8 0.00 0.00 0.00 67 1010.2
20260503051901 8 48 0.0 3.2 0.00 0.00 0.00 66 1010.2
20260503050401 8 97 0.0 0.0 0.00 0.00 0.00 63 1010.2
20260503042903 7 177 3.2 4.8 0.00 0.00 0.00 61 1010.5
20260503041402 7 102 3.2 4.8 0.00 0.00 0.00 63 1010.5
20260503034404 8 180 0.0 3.2 0.00 0.00 0.00 64 1010.8
20260503032903 8 193 1.6 3.2 0.00 0.00 0.00 65 1011.2
20260503031401 8 32 3.2 3.2 0.00 0.00 0.00 65 1011.5
20260503025903 8 126 3.2 4.8 0.00 0.00 0.00 63 1011.5
20260503022903 8 194 0.0 1.6 0.00 0.00 0.00 60 1011.9
20260503020401 9 172 1.6 3.2 0.00 0.00 0.00 55 1011.9
20260503014901 10 140 0.0 0.0 0.00 0.00 0.00 53 1011.9
20260503011903 10 139 0.0 0.0 0.00 0.00 0.00 49 1011.9
20260503010403 11 281 1.6 3.2 0.00 0.00 0.00 48 1011.9
20260503004902 12 216 1.6 4.8 0.00 0.00 0.00 48 1011.9
20260503003402 12 285 3.2 6.4 0.00 0.00 0.00 45 1011.9
20260503001902 13 275 6.4 11.3 0.00 0.00 0.00 41 1012.2
20260503000402 13 247 4.8 9.7 0.00 0.00 0.00 39 1012.2
20260502234903 13 272 3.2 17.7 0.00 0.00 0.00 36 1012.2
20260502233401 14 301 6.4 12.9 0.00 0.00 0.00 35 1012.2
20260502231901 15 283 6.4 11.3 0.00 0.00 0.00 33 1012.2
20260502230403 14 295 12.9 22.5 0.00 0.00 0.00 35 1012.5
20260502224902 15 263 9.7 17.7 0.00 0.00 0.00 35 1012.5
20260502223403 15 254 11.3 14.5 0.00 0.00 0.00 36 1012.5
20260502220404 15 241 11.3 14.5 0.00 0.00 0.00 36 1012.9
20260502214902 15 267 11.3 17.7 0.00 0.00 0.00 34 1012.9
20260502213902 15 210 11.3 22.5 0.00 0.00 0.00 34 1013.2
20260502210902 14 324 12.9 20.9 0.00 0.00 0.00 36 1013.5
20260502205402 13 240 17.7 19.3 0.00 0.00 0.00 36 1013.9
20260502203902 14 233 9.7 16.1 0.00 0.00 0.00 35 1013.9
20260502202402 14 263 17.7 17.7 0.00 0.00 0.00 35 1014.2
20260502200904 14 289 14.5 16.1 0.00 0.00 0.00 34 1014.2